Tracking 25410 objects as of 21-Jan-2022
HD Live streaming from Space Station
objects crossing your sky now

CZ-2C R/B

Track CZ-2C R/B now!
10-day predictions


NORAD ID: 45463
Int'l Code: 2020-021D
Perigee: 401.3 km
Apogee: 594.1 km
Inclination: 34.7 °
Period: 94.4 minutes
Semi major axis: 6868 km
RCS: Unknown
Launch date: March 24, 2020
Source: People's Republic of China (PRC)
Launch site: Xichang Space Center, China (XSC)

Note: This is a ROCKET BODY
aabbcc
Your satellite tracking list
Your tracking list is empty




NASA's NSSDC Master Catalog

Two Line Element Set (TLE):
1 45463U 20021D   22020.53683786  .00008518  00000-0  24991-3 0  9999
2 45463  34.6818 319.0800 0140327  39.5640 321.5217 15.25086442101829
Source of the keplerian elements: AFSPC